Tracking 25709 objects as of 24-May-2022
HD Live streaming from Space Station
objects crossing your sky now

COSMOS 2491 DEB

Track COSMOS 2491 DEB now!
10-day predictions


NORAD ID: 45030
Int'l Code: 2013-076R
Perigee: 1,233.5 km
Apogee: 1,627.2 km
Inclination: 82.4 °
Period: 114.3 minutes
Semi major axis: 7801 km
RCS: Unknown
Launch date: December 25, 2013
Source: Commonwealth of Independent States (former USSR) (CIS)
Launch site: PLESETSK MISSILE AND SPACE COMPLEX (PKMTR)

Note: This is SATELLITE DEBRIS
aabbcc
Your satellite tracking list
Your tracking list is empty




NASA's NSSDC Master Catalog

Two Line Element Set (TLE):
1 45030U 13076T   22142.82627901  .00002112  00000-0  10750-1 0  9995
2 45030  82.4422 357.3191 0252319 295.8341  61.6921 12.59926119108109
Source of the keplerian elements: AFSPC